"Pseudo-MPEC" for P11XKzH

Created 2024 Sep 8 5:22:11 UT using Find_Orb

Click here for an explanation of pseudo-MPECs

 
 Astrometry: 
     P11XKzH &C2024 06 03.40043023 19 12.44 -16 00 58.8    ~933b 21.7 rWNEOCPW84
     P11XKzH &C2024 06 03.40184123 19 12.63 -16 00 58.4    ~933b 21.5 rWNEOCPW84
     P11XKzH &C2024 07 10.43353500 35 24.61 -14 36 42.4    ~933b 21.0 gWNEOCPW84
     P11XKzH  C2024 08 27.54820501 19 39.436-17 58 26.07   ~92FM 20.94GVNEOCPF52
     P11XKzH  C2024 08 27.56004201 19 39.404-17 58 30.68   ~92FM 20.94GVNEOCPF52
     P11XKzH  C2024 08 27.58370301 19 39.333-17 58 39.74   ~92FM 20.91GVNEOCPF52
     P11XKzH* C2024 09 01.55542401 19 11.208-18 30 05.51   ~91Fb 21.36wXNEOCPF51
     P11XKzH  C2024 09 01.57615401 19 10.907-18 30 13.35   ~91Fb 21.25wXNEOCPF51
     P11XKzH  C2024 09 01.58649701 19 10.759-18 30 17.21   ~91Fb 21.02wXNEOCPF51
     P11XKzH 3C2024 09 02.44315301 19 00.507-18 35 31.73   ~92CM 20.77GVNEOCPT14
     P11XKzH 3C2024 09 02.44436301 19 00.487-18 35 32.18   ~92CM 20.75GVNEOCPT14
     P11XKzH 3C2024 09 02.44557001 19 00.467-18 35 32.66   ~92CM 20.78GVNEOCPT14
     P11XKzH 1C2024 09 03.76010 01 18 40.20 -18 43 20.8    ~95B7       VNEOCPQ62
     P11XKzH 1C2024 09 03.76689 01 18 40.08 -18 43 23.1    ~95B7 20.6 GVNEOCPQ62
     P11XKzH 3C2024 09 04.13653 01 18 34.11 -18 45 43.1    ~94F7 20.7 GVNEOCPZ31
     P11XKzH 3C2024 09 04.14093 01 18 34.03 -18 45 44.8    ~94F7 20.7 GVNEOCPZ31
     P11XKzH 3C2024 09 04.14534 01 18 33.95 -18 45 46.3    ~94F7 20.7 GVNEOCPZ31
     P11XKzH 2C2024 09 04.24600701 18 32.35 -18 46 14.0    ~955b 20.5 GVNEOCPW85
     P11XKzH 2C2024 09 04.24915501 18 32.29 -18 46 15.0    ~955b 20.7 GVNEOCPW85
     P11XKzH 2C2024 09 04.25234501 18 32.22 -18 46 16.3    ~955b 20.3 GVNEOCPW85
     P11XKzH 2C2024 09 04.25548001 18 32.16 -18 46 17.5    ~955b 20.4 GVNEOCPW85

Station data:
(F51) Pan-STARRS 1, Haleakala  (N20.707234 W156.255910)  US/Hawaii.
   Observers J. Bulger, T. Lowe, A. Schultz, M. Willman. Measurers K.
   Chambers, S. Chastel, T. de Boer, L. Denneau, J. Fairlamb, H. Flewelling,
   M. Huber, C.-C. Lin, E. Magnier, Y. Ramanjooloo, R. Wainscoat, R. Weryk.
   1.8-m Ritchey-Chrétien + CCD.
(F52) Pan-STARRS 2, Haleakala  (N20.707382 W156.255910)  US/Hawaii.
   Observers J. Bulger, T. Dukes, T. Lowe, A. Schultz, M. Willman. Measurers
   K. Chambers, S. Chastel, T. de Boer, L. Denneau, J. Fairlamb, H.
   Flewelling, M. Huber, C.-C. Lin, E. Magnier, Y. Ramanjooloo, R. Wainscoat,
   R. Weryk. 1.8-m Ritchey-Chrétien + CCD.
(Q62) iTelescope Observatory, Siding Spring  (S31.273286 E149.064420)
   Australia/NSW.  Observer H. Sato. 0.51-m f/6.8 astrograph + CCD + f/4.5
   focal reducer0.43-m f/6.8 astrograph + CCD + focal reducer0.43-m f/6.8
   astrograph + CCD0.10-m f/5 astrograph + CCD0.127-m f/5.6 refractor +
   CCD0.50-m f/6.8 reflector + CCD0.30-m f/9 reflector + CCD.
(T14) Mauna Kea-UH/Tholen NEO Follow-Up (CFHT)  (N19.825252 W155.468876)
   US/Hawaii.  Observer R. Weryk. 3.6-m Canada-France-Hawaii Telescope.
(W84) Cerro Tololo-DECam  (S30.169594 W70.806420)  Chile.  Observer S. Deen.
   4.0-m reflector + CCD.
(W85) Cerro Tololo-LCO A  (S30.167404 W70.804810)  Chile.  Observer J. D.
   Armstrong. Measurer T. Lister. 1.0-m f/8 Ritchey-Chrétien + CCD.
(Z31) Tenerife Observatory-LCO A, Tenerife  (N28.300419 W16.511650)  Canary
   Islands (Spain).  Observers M. Micheli, T. Santana-Ros, L. Conversi.
   Measurer M. Micheli. 1.0-m reflector + CCD.

Orbital elements:  P11XKzH
   Perihelion 2024 Jun 15.66067 +/- 0.00284 TT = 15:51:21 (JD 2460477.16067)
Epoch 2024 Sep  4.0 TT = JDT 2460557.5   Earth MOID: 0.7664   Ju: 0.6522
M  12.35233760 +/- 0.0021           (J2000 ecliptic)             AutoNEOCP
n   0.15375205 +/- 3.07e-5          Peri.  230.57531 +/- 0.0024
a   3.45081834 +/- 0.000459         Node    84.98428 +/- 0.0015
e   0.4929511 +/- 6.25e-5           Incl.   12.73651 +/- 0.00027
P   6.41037                H 18.55  G  0.15   U  5.8
q 1.74973364 +/- 2.03e-5    Q 5.15190304 +/- 0.000901
From 21 observations 2024 June 3-Sept. 4; mean residual 0".15
Residuals in arcseconds: 
240603 W84  .02+  .05-    240901 F51  .04-  .04+    240904 Z31  .34-  .16+    
240603 W84  .05-  .02-    240901 F51  .08+  .03-    240904 Z31  .18-  .03+    
240710 W84  .09+  .05+    240902 T14  .04+  .00     240904 Z31  .01-  .09+    
240827 F52  .15-  .01+    240902 T14  .04+  .00     240904 W85  .22-  .27-    
240827 F52  .04-  .03-    240902 T14  .04+  .02-    240904 W85  .14-  .14-    
240827 F52  .07+  .01-    240903 Q62  .14-  .21-    240904 W85  .19-  .30-    
240901 F51  .22-  .26+    240903 Q62  .03+  .13-    240904 W85  .12-  .38-    

Ephemerides (geocentric):
Date (UTC) HH   RA             Dec           delta  r     elong  mag " sig PA
---- --------  ------------   ------------  ------ ------ -----  --- --------
2024 09 08 05  01 17 06.208   -19 08 35.86  .98916 1.9076 145.7 20.8 .134  64
2024 09 08 06  01 17 05.133   -19 08 49.20  .98916 1.9078 145.7 20.8 .135  64
2024 09 08 07  01 17 04.055   -19 09 02.53  .98917 1.9079 145.7 20.8 .136  64
2024 09 08 08  01 17 02.973   -19 09 15.84  .98917 1.9081 145.7 20.8 .137  64
2024 09 08 09  01 17 01.889   -19 09 29.13  .98918 1.9082 145.8 20.8 .138  64
2024 09 08 10  01 17 00.800   -19 09 42.41  .98918 1.9084 145.8 20.8 .139  64
2024 09 08 11  01 16 59.709   -19 09 55.67  .98919 1.9085 145.8 20.8 .140  64
2024 09 08 12  01 16 58.614   -19 10 08.91  .98919 1.9087 145.9 20.8 .141  64
2024 09 08 13  01 16 57.515   -19 10 22.13  .98920 1.9088 145.9 20.8 .142  64
2024 09 08 14  01 16 56.413   -19 10 35.34  .98921 1.9089 145.9 20.8 .143  64
2024 09 08 15  01 16 55.308   -19 10 48.52  .98921 1.9091 146.0 20.8 .144  64
2024 09 08 16  01 16 54.199   -19 11 01.69  .98922 1.9092 146.0 20.8 .145  64
2024 09 08 17  01 16 53.087   -19 11 14.85  .98923 1.9094 146.0 20.8 .146  64
2024 09 08 18  01 16 51.972   -19 11 27.98  .98924 1.9095 146.0 20.8 .147  64
2024 09 08 19  01 16 50.853   -19 11 41.10  .98924 1.9097 146.1 20.8 .148  64
2024 09 08 20  01 16 49.731   -19 11 54.19  .98925 1.9098 146.1 20.8 .149  64
2024 09 08 21  01 16 48.606   -19 12 07.27  .98926 1.9100 146.1 20.8 .150  64
2024 09 08 22  01 16 47.477   -19 12 20.34  .98927 1.9101 146.2 20.8 .151  65
2024 09 08 23  01 16 46.345   -19 12 33.38  .98928 1.9103 146.2 20.8 .152  65
2024 09 09 00  01 16 45.210   -19 12 46.41  .98929 1.9104 146.2 20.8 .153  65
2024 09 09 01  01 16 44.071   -19 12 59.41  .98930 1.9105 146.2 20.8 .154  65
2024 09 09 02  01 16 42.929   -19 13 12.40  .98931 1.9107 146.3 20.8 .155  65
2024 09 09 03  01 16 41.783   -19 13 25.37  .98932 1.9108 146.3 20.8 .156  65
2024 09 09 04  01 16 40.635   -19 13 38.33  .98933 1.9110 146.3 20.8 .157  65
2024 09 09 05  01 16 39.483   -19 13 51.26  .98934 1.9111 146.4 20.8 .158  65
2024 09 09 06  01 16 38.327   -19 14 04.17  .98935 1.9113 146.4 20.8 .159  65
2024 09 09 07  01 16 37.169   -19 14 17.07  .98936 1.9114 146.4 20.8 .160  65
2024 09 09 08  01 16 36.007   -19 14 29.95  .98938 1.9116 146.4 20.8 .161  65
2024 09 09 09  01 16 34.841   -19 14 42.81  .98939 1.9117 146.5 20.8 .162  65
2024 09 09 10  01 16 33.673   -19 14 55.65  .98940 1.9119 146.5 20.8 .163  65
2024 09 09 11  01 16 32.501   -19 15 08.47  .98941 1.9120 146.5 20.8 .164  65
2024 09 09 12  01 16 31.326   -19 15 21.28  .98943 1.9122 146.6 20.8 .165  65
2024 09 09 13  01 16 30.147   -19 15 34.06  .98944 1.9123 146.6 20.8 .166  65
2024 09 09 14  01 16 28.966   -19 15 46.82  .98945 1.9124 146.6 20.8 .167  65
2024 09 09 15  01 16 27.781   -19 15 59.57  .98947 1.9126 146.6 20.8 .168  65
2024 09 09 16  01 16 26.593   -19 16 12.30  .98948 1.9127 146.7 20.8 .169  65
2024 09 09 17  01 16 25.401   -19 16 25.01  .98950 1.9129 146.7 20.8 .170  65
2024 09 09 18  01 16 24.206   -19 16 37.70  .98951 1.9130 146.7 20.8 .171  65
2024 09 09 19  01 16 23.008   -19 16 50.37  .98953 1.9132 146.8 20.8 .172  65
2024 09 09 20  01 16 21.807   -19 17 03.02  .98954 1.9133 146.8 20.8 .173  65
2024 09 09 21  01 16 20.603   -19 17 15.65  .98956 1.9135 146.8 20.8 .174  65
2024 09 09 22  01 16 19.395   -19 17 28.26  .98957 1.9136 146.8 20.8 .175  65
2024 09 09 23  01 16 18.184   -19 17 40.85  .98959 1.9138 146.9 20.8 .176  65
2024 09 10 00  01 16 16.970   -19 17 53.43  .98961 1.9139 146.9 20.8 .177  65
2024 09 10 01  01 16 15.753   -19 18 05.98  .98962 1.9141 146.9 20.8 .178  65
2024 09 10 02  01 16 14.532   -19 18 18.52  .98964 1.9142 147.0 20.8 .179  65
2024 09 10 03  01 16 13.308   -19 18 31.03  .98966 1.9144 147.0 20.8 .180  65
2024 09 10 04  01 16 12.081   -19 18 43.53  .98968 1.9145 147.0 20.8 .181  65